Time,TemperatureF,DewpointF,PressureIn,WindDirection,WindDirectionDegrees,WindSpeedMPH,WindSpeedGustMPH,Humidity,HourlyPrecipIn,Conditions,Clouds,dailyrainin,SoftwareType,DateUTC
2013-11-20 00:12:00,41.0,25.0,30.01,South,178,5.0,10.0,53,0.00,,,0.00,,2013-11-20 06:12:00,
2013-11-20 00:21:00,41.0,25.0,30.01,SSE,163,4.0,16.0,52,0.00,,,0.00,,2013-11-20 06:21:00,
2013-11-20 00:42:00,42.0,25.0,30.01,South,173,3.0,7.0,51,0.00,,,0.00,,2013-11-20 06:42:00,
2013-11-20 00:52:00,42.0,24.0,30.01,SW,217,3.0,8.0,49,0.00,,,0.00,,2013-11-20 06:52:00,
2013-11-20 01:11:00,43.0,24.0,30.00,SSE,155,4.0,10.0,47,0.00,,,0.00,,2013-11-20 07:11:00,
2013-11-20 01:21:00,43.0,24.0,30.00,SSE,152,3.0,12.0,46,0.00,,,0.00,,2013-11-20 07:21:00,
2013-11-20 01:42:00,43.0,24.0,30.00,SSW,192,2.0,11.0,46,0.00,,,0.00,,2013-11-20 07:42:00,
2013-11-20 01:52:00,43.0,24.0,30.00,SW,228,3.0,7.0,46,0.00,,,0.00,,2013-11-20 07:52:00,
2013-11-20 02:21:00,43.0,24.0,29.99,South,171,2.0,10.0,46,0.00,,,0.00,,2013-11-20 08:21:00,
2013-11-20 02:42:00,44.0,24.0,29.99,South,181,3.0,13.0,45,0.00,,,0.00,,2013-11-20 08:42:00,
2013-11-20 02:52:00,44.0,23.0,29.98,South,180,6.0,18.0,43,0.00,,,0.00,,2013-11-20 08:52:00,
2013-11-20 03:12:00,44.0,23.0,29.99,South,185,4.0,17.0,43,0.00,,,0.00,,2013-11-20 09:12:00,
2013-11-20 03:21:00,44.0,23.0,29.99,South,181,3.0,8.0,44,0.00,,,0.00,,2013-11-20 09:21:00,
2013-11-20 03:43:00,44.0,23.0,29.99,SSW,202,5.0,14.0,44,0.00,,,0.00,,2013-11-20 09:43:00,
2013-11-20 03:54:00,44.0,24.0,29.98,South,188,4.0,13.0,45,0.00,,,0.00,,2013-11-20 09:54:00,
2013-11-20 04:12:00,44.0,24.0,29.98,South,169,6.0,17.0,45,0.00,,,0.00,,2013-11-20 10:12:00,
2013-11-20 04:23:00,44.0,25.0,29.98,SE,146,6.0,13.0,46,0.00,,,0.00,,2013-11-20 10:23:00,
2013-11-20 04:43:00,43.0,24.0,29.98,South,178,5.0,13.0,46,0.00,,,0.00,,2013-11-20 10:43:00,
2013-11-20 04:53:00,43.0,24.0,29.98,WSW,237,5.0,15.0,47,0.00,,,0.00,,2013-11-20 10:53:00,
2013-11-20 05:12:00,43.0,24.0,29.98,SSW,201,7.0,15.0,47,0.00,,,0.00,,2013-11-20 11:12:00,
2013-11-20 05:22:00,43.0,25.0,29.98,South,188,6.0,11.0,48,0.00,,,0.00,,2013-11-20 11:22:00,
2013-11-20 05:43:00,43.0,25.0,29.98,SSE,166,4.0,12.0,48,0.00,,,0.00,,2013-11-20 11:43:00,
2013-11-20 05:52:00,43.0,25.0,29.97,SW,214,6.0,13.0,48,0.00,,,0.00,,2013-11-20 11:52:00,
2013-11-20 06:11:00,43.0,25.0,29.97,SE,138,4.0,13.0,48,0.00,,,0.00,,2013-11-20 12:11:00,
2013-11-20 06:22:00,44.0,26.0,29.97,South,181,5.0,14.0,48,0.00,,,0.00,,2013-11-20 12:22:00,
2013-11-20 06:42:00,44.0,26.0,29.97,South,184,4.0,16.0,48,0.00,,,0.00,,2013-11-20 12:42:00,
2013-11-20 06:52:00,44.0,26.0,29.98,SSW,200,3.0,13.0,48,0.00,,,0.00,,2013-11-20 12:52:00,
2013-11-20 07:11:00,44.0,25.0,29.98,SSE,157,4.0,14.0,47,0.00,,,0.00,,2013-11-20 13:11:00,
2013-11-20 07:21:00,44.0,25.0,29.98,SE,143,3.0,12.0,47,0.00,,,0.00,,2013-11-20 13:21:00,
2013-11-20 07:42:00,44.0,25.0,29.98,South,178,3.0,10.0,47,0.00,,,0.00,,2013-11-20 13:42:00,
2013-11-20 07:52:00,44.0,25.0,29.98,SSW,201,3.0,12.0,47,0.00,,,0.00,,2013-11-20 13:52:00,
2013-11-20 08:12:00,44.0,25.0,29.98,South,175,4.0,10.0,47,0.00,,,0.00,,2013-11-20 14:12:00,
2013-11-20 08:22:00,44.0,25.0,29.98,South,181,3.0,10.0,47,0.00,,,0.00,,2013-11-20 14:22:00,
2013-11-20 08:42:00,44.0,25.0,29.99,South,190,5.0,10.0,47,0.00,,,0.00,,2013-11-20 14:42:00,
2013-11-20 08:52:00,44.0,25.0,29.99,SSW,212,5.0,13.0,47,0.00,,,0.00,,2013-11-20 14:52:00,
2013-11-20 09:11:00,44.0,26.0,30.00,SW,222,3.0,12.0,48,0.00,,,0.00,,2013-11-20 15:11:00,
2013-11-20 09:21:00,44.0,26.0,30.00,SW,219,5.0,11.0,48,0.00,,,0.00,,2013-11-20 15:21:00,
2013-11-20 09:43:00,44.0,26.0,30.01,South,183,4.0,8.0,48,0.00,,,0.00,,2013-11-20 15:43:00,
2013-11-20 09:54:00,44.0,26.0,30.01,SSE,159,3.0,8.0,48,0.00,,,0.00,,2013-11-20 15:54:00,
2013-11-20 10:12:00,44.0,26.0,30.01,South,173,2.0,12.0,48,0.00,,,0.00,,2013-11-20 16:12:00,
2013-11-20 10:23:00,44.0,26.0,30.01,SSE,159,3.0,7.0,48,0.00,,,0.00,,2013-11-20 16:23:00,
2013-11-20 10:43:00,44.0,25.0,30.01,SSE,166,4.0,13.0,47,0.00,,,0.00,,2013-11-20 16:43:00,
2013-11-20 10:52:00,44.0,25.0,30.02,SSE,165,4.0,8.0,47,0.00,,,0.00,,2013-11-20 16:52:00,
2013-11-20 11:12:00,44.0,25.0,30.01,SSE,167,5.0,12.0,47,0.00,,,0.00,,2013-11-20 17:12:00,
2013-11-20 11:22:00,44.0,25.0,30.02,SSE,167,3.0,9.0,47,0.00,,,0.00,,2013-11-20 17:22:00,
2013-11-20 11:33:00,44.0,25.0,30.02,SSE,167,3.0,9.0,47,0.00,,,0.00,,2013-11-20 17:33:00,
2013-11-20 11:42:00,44.0,25.0,30.02,SSE,167,3.0,9.0,47,0.00,,,0.00,,2013-11-20 17:42:00,
2013-11-20 11:52:00,44.0,26.0,30.01,SSE,150,2.0,10.0,48,0.00,,,0.00,,2013-11-20 17:52:00,
2013-11-20 12:12:00,44.0,26.0,30.01,SSE,161,4.0,10.0,49,0.00,,,0.00,,2013-11-20 18:12:00,
2013-11-20 12:21:00,45.0,27.0,30.01,SSE,157,3.0,10.0,49,0.00,,,0.00,,2013-11-20 18:21:00,
2013-11-20 12:42:00,45.0,27.0,30.01,South,184,5.0,11.0,49,0.00,,,0.00,,2013-11-20 18:42:00,
2013-11-20 12:52:00,46.0,28.0,30.00,South,175,4.0,11.0,49,0.00,,,0.00,,2013-11-20 18:52:00,
2013-11-20 13:21:00,46.0,28.0,30.00,SSE,148,4.0,12.0,50,0.00,,,0.00,,2013-11-20 19:21:00,
2013-11-20 13:42:00,46.0,29.0,30.00,South,183,3.0,12.0,52,0.00,,,0.00,,2013-11-20 19:42:00,
2013-11-20 13:52:00,46.0,29.0,30.00,South,180,5.0,11.0,52,0.00,,,0.00,,2013-11-20 19:52:00,
2013-11-20 14:11:00,45.0,29.0,30.00,South,174,4.0,11.0,53,0.00,,,0.00,,2013-11-20 20:11:00,
2013-11-20 14:21:00,45.0,30.0,30.00,SW,227,2.0,8.0,55,0.00,,,0.00,,2013-11-20 20:21:00,
2013-11-20 14:42:00,44.0,29.0,30.00,SSW,207,3.0,12.0,56,0.00,,,0.00,,2013-11-20 20:42:00,
2013-11-20 14:52:00,44.0,30.0,30.01,SE,130,6.0,14.0,58,0.00,,,0.00,,2013-11-20 20:52:00,
2013-11-20 15:22:00,44.0,31.0,30.00,SSW,206,4.0,9.0,60,0.00,,,0.00,,2013-11-20 21:22:00,
2013-11-20 15:43:00,43.0,30.0,30.01,South,178,3.0,11.0,60,0.00,,,0.00,,2013-11-20 21:43:00,
2013-11-20 15:53:00,43.0,30.0,30.01,South,178,3.0,11.0,60,0.00,,,0.00,,2013-11-20 21:53:00,
2013-11-20 16:13:00,43.0,32.0,30.01,South,186,6.0,10.0,65,0.00,,,0.00,,2013-11-20 22:13:00,
2013-11-20 16:23:00,42.0,31.0,30.01,SSE,159,5.0,18.0,66,0.00,,,0.00,,2013-11-20 22:23:00,
2013-11-20 16:42:00,42.0,32.0,30.01,SSE,148,4.0,10.0,68,0.00,,,0.00,,2013-11-20 22:42:00,
2013-11-20 16:53:00,42.0,33.0,30.02,SW,224,3.0,12.0,71,0.00,,,0.00,,2013-11-20 22:53:00,
2013-11-20 17:12:00,41.0,33.0,30.03,SSE,167,4.0,10.0,73,0.00,,,0.00,,2013-11-20 23:12:00,
2013-11-20 17:21:00,40.0,33.0,30.03,SW,225,3.0,7.0,76,0.00,,,0.00,,2013-11-20 23:21:00,
2013-11-20 17:42:00,40.0,33.0,30.03,SSE,163,2.0,9.0,77,0.00,,,0.00,,2013-11-20 23:42:00,
2013-11-20 17:52:00,40.0,34.0,30.04,SW,223,3.0,9.0,78,0.00,,,0.00,,2013-11-20 23:52:00,
2013-11-20 18:11:00,40.0,34.0,30.04,South,182,3.0,7.0,79,0.00,,,0.00,,2013-11-21 00:11:00,
2013-11-20 18:22:00,39.0,33.0,30.04,South,174,2.0,6.0,79,0.00,,,0.00,,2013-11-21 00:22:00,
2013-11-20 18:42:00,39.0,33.0,30.05,SSW,200,2.0,8.0,79,0.00,,,0.00,,2013-11-21 00:42:00,
2013-11-20 18:52:00,39.0,33.0,30.05,SSE,163,2.0,6.0,80,0.00,,,0.00,,2013-11-21 00:52:00,
2013-11-20 19:11:00,39.0,33.0,30.05,SSW,213,4.0,9.0,80,0.00,,,0.00,,2013-11-21 01:11:00,
2013-11-20 19:22:00,39.0,34.0,30.05,South,183,3.0,9.0,81,0.00,,,0.00,,2013-11-21 01:22:00,
2013-11-20 19:42:00,39.0,34.0,30.06,SSW,192,1.0,12.0,81,0.00,,,0.00,,2013-11-21 01:42:00,
2013-11-20 19:52:00,38.0,33.0,30.06,South,178,3.0,8.0,82,0.00,,,0.00,,2013-11-21 01:52:00,
2013-11-20 20:21:00,38.0,33.0,30.06,South,191,3.0,8.0,82,0.00,,,0.00,,2013-11-21 02:21:00,
2013-11-20 21:22:00,38.0,33.0,30.08,South,179,1.0,4.0,83,0.00,,,0.00,,2013-11-21 03:22:00,
2013-11-20 21:43:00,38.0,33.0,30.08,SSE,166,2.0,6.0,83,0.00,,,0.00,,2013-11-21 03:43:00,
2013-11-20 21:54:00,38.0,33.0,30.08,South,184,3.0,6.0,83,0.00,,,0.00,,2013-11-21 03:54:00,
2013-11-20 22:13:00,38.0,34.0,30.08,South,183,1.0,4.0,84,0.00,,,0.00,,2013-11-21 04:13:00,
2013-11-20 22:23:00,38.0,34.0,30.08,SSE,167,2.0,4.0,85,0.00,,,0.00,,2013-11-21 04:23:00,
2013-11-20 22:53:00,38.0,34.0,30.08,SSE,157,1.0,5.0,86,0.00,,,0.00,,2013-11-21 04:53:00,
2013-11-20 23:12:00,37.0,33.0,30.08,SSW,200,1.0,5.0,86,0.00,,,0.00,,2013-11-21 05:12:00,
2013-11-20 23:22:00,37.0,34.0,30.08,South,190,0.0,4.0,87,0.00,,,0.00,,2013-11-21 05:22:00,
2013-11-20 23:42:00,37.0,34.0,30.09,South,184,0.0,3.0,87,0.00,,,0.00,,2013-11-21 05:42:00,
2013-11-20 23:53:00,37.0,34.0,30.09,WSW,250,1.0,4.0,87,0.00,,,0.00,,2013-11-21 05:53:00,